Angleton, TX

2:01 PM CST on November 13, 2019 (GMT -0600)
Brazoria County

Weather History for KLBX - October, 2019

Change the Weather History Date:

Wednesday, October 23, 2019

  Actual Average Record
Temperature  
Mean Temperature 68 °F -  
Max Temperature 81 °F 77 °F 91 °F (2003)
Min Temperature 55 °F 60 °F 46 °F (2007)
Cooling Degree Days 3    
Growing Degree Days 18 (Base 50)    
Moisture  
Dew Point 57 °F    
Average Humidity 69    
Maximum Humidity 93    
Minimum Humidity 42    
Precipitation  
Precipitation 0.00 in - - ()
Sea Level Pressure  
Sea Level Pressure 30.07 in    
Wind  
Wind Speed 6 mph ()    
Max Wind Speed 17 mph    
Max Gust Speed 23 mph    
Visibility 10.0 miles    
Events      
Averages and records for this station are not official NWS values.
T = Trace of Precipitation, MM = Missing Value Source: Averaged Metar Reports

Daily Weather History Graph

Daily Weather History Graph

Search for Another Location

Airport or City:

Astronomy

Oct. 23, 2019 Rise Set
Actual Time 7:28 AM CDT 6:43 PM CDT
Civil Twilight 7:03 AM CDT 7:07 PM CDT
Nautical Twilight 6:36 AM CDT 7:35 PM CDT
Astronomical Twilight 6:08 AM CDT 8:03 PM CDT
Moon 2:21 AM CDT (10/23) 4:04 PM CDT (10/23)
Length of Visible Light 12h 04m
Length of Day
11h 15m
Waning Crescent, 26% of the Moon is Illuminated
Oct 23
Waning Crescent
Oct 27
New
Nov 4
First Quarter
Nov 12
Full
Nov 19
Last Quarter

Hourly Weather History & Observations

Time (CDT) Temp. Heat Index Dew Point Humidity Pressure Visibility Wind Dir Wind Speed Gust Speed Precip Events Conditions
12:53 AM 62.1 °F - 52.0 °F 70% 30.12 in 10.0 mi ENE 4.6 mph - N/A   Clear
1:53 AM 55.9 °F - 53.1 °F 90% 30.11 in 10.0 mi Calm Calm - N/A   Clear
2:53 AM 57.0 °F - 53.1 °F 87% 30.10 in 10.0 mi Calm Calm - N/A   Clear
3:53 AM 55.9 °F - 54.0 °F 93% 30.09 in 10.0 mi NE 4.6 mph - N/A   Clear
4:53 AM 57.0 °F - 54.0 °F 89% 30.09 in 10.0 mi North 3.5 mph - N/A   Clear
5:53 AM 55.9 °F - 54.0 °F 93% 30.09 in 10.0 mi NNE 3.5 mph - N/A   Clear
6:53 AM 57.0 °F - 54.0 °F 89% 30.09 in 10.0 mi North 3.5 mph - N/A   Clear
7:53 AM 57.9 °F - 55.9 °F 93% 30.09 in 10.0 mi NE 3.5 mph - N/A   Clear
8:53 AM 66.9 °F - 61.0 °F 81% 30.10 in 10.0 mi East 3.5 mph - N/A   Clear
9:53 AM 75.9 °F - 59.0 °F 56% 30.11 in 10.0 mi ESE 9.2 mph - N/A   Clear
10:53 AM 78.1 °F - 55.9 °F 46% 30.12 in 10.0 mi SE 11.5 mph - N/A   Clear
11:53 AM 80.1 °F 80.1 °F 55.0 °F 42% 30.12 in 10.0 mi ESE 12.7 mph 19.6 mph N/A   Clear
12:53 PM 81.0 °F 81.0 °F 57.0 °F 44% 30.10 in 10.0 mi SSE 17.3 mph 23.0 mph N/A   Clear
1:53 PM 80.1 °F 80.2 °F 55.9 °F 43% 30.07 in 10.0 mi SE 16.1 mph - N/A   Clear
2:53 PM 81.0 °F 80.8 °F 55.9 °F 42% 30.04 in 10.0 mi SSE 15.0 mph 21.9 mph N/A   Clear
3:53 PM 80.1 °F 80.4 °F 57.0 °F 45% 30.04 in 10.0 mi SE 15.0 mph 23.0 mph N/A   Clear
4:53 PM 79.0 °F - 57.9 °F 48% 30.02 in 10.0 mi ESE 15.0 mph 23.0 mph N/A   Clear
5:53 PM 77.0 °F - 60.1 °F 56% 30.02 in 10.0 mi SE 10.4 mph - N/A   Clear
6:53 PM 73.0 °F - 60.1 °F 64% 30.03 in 10.0 mi ESE 5.8 mph - N/A   Clear
7:53 PM 71.1 °F - 61.0 °F 70% 30.03 in 10.0 mi ESE 5.8 mph - N/A   Clear
8:53 PM 70.0 °F - 61.0 °F 73% 30.03 in 10.0 mi ESE 5.8 mph - N/A   Clear
9:53 PM 70.0 °F - 62.1 °F 76% 30.03 in 10.0 mi SE 6.9 mph - N/A   Clear
10:53 PM 70.0 °F - 62.1 °F 76% 30.04 in 10.0 mi ESE 4.6 mph - N/A   Clear
11:53 PM 66.9 °F - 62.1 °F 84% 30.02 in 10.0 mi East 3.5 mph - N/A   Clear